Hourly Data Report for August 08, 2022

TRENTON A
ONTARIO
Current Station Operator: DND

44°07'08.000" N
77°31'41.000" W
86.30 m
6158875
71621
YTR

Download Data

Hourly Data (August 2022)
Hourly Data Report for August 8, 2022
TIME
LST
Temp Definition
°C
Dew Point Definition
°C
Rel Hum Definition
%
Precip. Amount Definition
mm

Wind Dir Definition
10's deg

Wind Spd Definition
km/h
Visibility Definition
km
Stn Press Definition
kPa
Hmdx Definition


Wind Chill Definition


Weather Definition


00:00 25.8 22.8 84   23 11 24.1 100.36 36   LegendNANA
01:00 25.2 22.9 87   25 11 24.1 100.33 35   LegendNANA
02:00 25.5 23.0 86   22 18 24.1 100.29 36   LegendNANA
03:00 25.3 22.8 86   22 15 24.1 100.26 35   LegendNANA
04:00 24.8 22.8 89   23 11 24.1 100.24 35   LegendNANA
05:00 24.6 22.7 89   22 15 16.1 100.21 35   LegendNANA
06:00 24.7 23.0 90   22 15 24.1 100.25 35   LegendNANA
07:00 25.1 23.4 90   23 11 24.1 100.25 36   LegendNANA
08:00 26.6 23.3 82   23 26 24.1 100.21 37   LegendNANA
09:00 27.5 23.1 77   23 26 24.1 100.20 38   LegendNANA
10:00 28.1 22.7 73   23 26 24.1 100.17 38   LegendNANA
11:00 28.5 22.4 70   23 28 24.1 100.13 38   LegendNANA
12:00 28.0 22.7 73   22 18 24.1 100.07 38   LegendNANA
13:00 25.3 22.2 83   23 30 12.9 100.02 35   Rain Showers
14:00 26.6 22.7 79   24 34 4.8 99.95 37   Rain Showers, Fog
15:00 26.2 23.5 85   23 22 24.1 99.85 37   LegendNANA
16:00 26.3 23.5 85   23 22 24.1 99.82 37   LegendNANA
17:00 26.9 23.3 81   23 31 24.1 99.78 37   LegendNANA
18:00 26.5 22.9 81   24 28 24.1 99.77 37   LegendNANA
19:00 26.5 23.1 82   22 22 24.1 99.71 37   LegendNANA
20:00 26.3 22.9 82   23 18 24.1 99.64 36   LegendNANA
21:00 25.5 22.8 85   23 26 24.1 99.69 36   LegendNANA
22:00 24.9 22.1 84   24 18 24.1 99.69 34   LegendNANA
23:00 24.4 21.9 86   23 15 24.1 99.75 34   LegendNANA

Notes on Data Quality.

Legend

  • E = Estimated
  • M = Missing
  • NA = Not Available*
  • [empty] = Indicates an unobserved value
Date modified: